DW6963 Weather Reports


Display with metric or nautical units.
time (UTC)temp
F
wind
direction
speed
MPH
gust
MPH
rain 1hr
in
rain 24hr
in
rain mn
in
humidity
%
barometer
mb
20260901011455 78 0 0.0 0.0 0.00 0.00 0.00 85 1018.4
20260901010455 78 0 0.0 0.0 0.00 0.00 0.00 84 1018.3
20260901005455 79 0 0.0 0.0 0.00 0.00 0.00 83 1018.3
20260901004455 79 0 0.0 0.0 0.00 0.00 0.00 82 1018.1
20260901003955 79 0 0.0 0.0 0.00 0.00 0.00 82 1018.2
20260901003454 79 0 0.0 0.0 0.00 0.00 0.00 82 1018.2
20260901002955 80 0 0.0 0.0 0.00 0.00 0.00 82 1018.1
20260901002455 80 0 0.0 0.0 0.00 0.00 0.00 82 1018.1
20260901001955 80 0 0.0 0.0 0.00 0.00 0.00 81 1017.8
20260901001455 81 0 0.0 0.0 0.00 0.00 0.00 81 1017.8
20260901000955 81 0 0.0 0.0 0.00 0.00 0.00 80 1017.7
20260831235955 82 0 0.0 0.0 0.00 0.00 0.00 79 1017.7
20260831234955 83 0 0.0 0.0 0.00 0.00 0.00 77 1017.7
20260831234455 83 0 0.0 0.0 0.00 0.00 0.00 76 1017.7
20260831233955 84 0 0.0 0.0 0.00 0.00 0.00 76 1017.6
20260831233455 84 0 0.0 0.0 0.00 0.00 0.00 75 1017.6
20260831232955 84 0 0.0 0.0 0.00 0.00 0.00 75 1017.5
20260831232454 84 0 0.0 0.0 0.00 0.00 0.00 75 1017.5
20260831231955 84 0 0.0 0.0 0.00 0.00 0.00 74 1017.3
20260831231455 84 0 0.0 0.0 0.00 0.00 0.00 72 1017.3
20260831230955 84 0 0.0 0.0 0.00 0.00 0.00 73 1017.3
20260831230455 85 0 0.0 0.0 0.00 0.00 0.00 72 1017.3
20260831225954 85 0 0.0 0.0 0.00 0.00 0.00 72 1017.3
20260831225455 86 0 0.0 0.0 0.00 0.00 0.00 69 1017.2
20260831224955 86 0 0.0 0.0 0.00 0.00 0.00 69 1017.1
20260831223954 86 0 0.0 0.0 0.00 0.00 0.00 67 1017.0
20260831223455 87 0 0.0 0.0 0.00 0.00 0.00 66 1017.0
20260831222955 87 0 0.0 0.0 0.00 0.00 0.00 67 1016.9
20260831222455 87 0 0.0 0.0 0.00 0.00 0.00 66 1016.8
20260831221454 87 0 0.0 0.0 0.00 0.00 0.00 65 1016.6
20260831220955 88 0 0.0 0.0 0.00 0.00 0.00 64 1016.7
20260831220455 88 0 0.0 0.0 0.00 0.00 0.00 64 1016.9
20260831215955 88 0 0.0 0.0 0.00 0.00 0.00 64 1017.2
20260831215455 89 0 0.0 0.0 0.00 0.00 0.00 63 1017.3
20260831214955 89 0 0.0 0.0 0.00 0.00 0.00 62 1017.3
20260831214455 89 0 0.0 0.0 0.00 0.00 0.00 61 1017.4
20260831213955 89 0 0.0 0.0 0.00 0.00 0.00 63 1017.6
20260831213455 89 0 0.0 0.0 0.00 0.00 0.00 61 1017.6
20260831212955 89 0 0.0 0.0 0.00 0.00 0.00 62 1017.6
20260831212455 88 0 0.0 0.0 0.00 0.00 0.00 65 1017.6
20260831211455 87 0 0.0 0.0 0.00 0.00 0.00 64 1017.8
20260831210954 87 0 0.0 0.0 0.00 0.00 0.00 64 1017.9
20260831210455 88 0 0.0 0.0 0.00 0.00 0.00 63 1017.9
20260831205955 88 0 0.0 0.0 0.00 0.00 0.00 60 1018.1
20260831205455 88 0 0.0 0.0 0.00 0.00 0.00 61 1018.2
20260831204954 88 0 0.0 0.0 0.00 0.00 0.00 59 1018.2
20260831204455 89 0 0.0 0.0 0.00 0.00 0.00 60 1018.2
20260831203955 89 0 0.0 0.0 0.00 0.00 0.00 59 1018.3
20260831203456 90 0 0.0 0.0 0.00 0.00 0.00 56 1018.4
20260831202455 90 0 0.0 0.0 0.00 0.00 0.00 57 1018.5
20260831201955 90 0 0.0 0.0 0.00 0.00 0.00 57 1018.5
20260831200955 90 0 0.0 0.0 0.00 0.00 0.00 58 1018.7
20260831195955 90 0 0.0 0.0 0.00 0.00 0.00 57 1018.9
20260831195455 90 0 0.0 0.0 0.00 0.00 0.00 59 1019.0
20260831194955 90 0 0.0 0.0 0.00 0.00 0.00 60 1019.0
20260831194455 89 0 0.0 0.0 0.00 0.00 0.00 60 1019.0
20260831193955 89 0 0.0 0.0 0.00 0.00 0.00 64 1019.0
20260831193455 88 0 0.0 0.0 0.00 0.00 0.00 65 1019.2
20260831192955 88 0 0.0 0.0 0.00 0.00 0.00 65 1019.3
20260831192455 87 0 0.0 0.0 0.00 0.00 0.00 65 1019.2
20260831191955 87 0 0.0 0.0 0.00 0.00 0.00 64 1019.2
20260831191455 88 0 0.0 0.0 0.00 0.00 0.00 66 1019.2
20260831190954 87 0 0.0 0.0 0.00 0.00 0.00 65 1019.2
20260831190455 87 0 0.0 0.0 0.00 0.00 0.00 64 1019.3
20260831185955 88 0 0.0 0.0 0.00 0.00 0.00 64 1019.3
20260831185454 88 0 0.0 0.0 0.00 0.00 0.00 65 1019.4
20260831184955 88 0 0.0 0.0 0.00 0.00 0.00 65 1019.5
20260831183955 88 0 0.0 0.0 0.00 0.00 0.00 65 1019.5
20260831183455 88 0 0.0 0.0 0.00 0.00 0.00 65 1019.6
20260831182455 87 0 0.0 0.0 0.00 0.00 0.00 68 1019.6
20260831181955 87 0 0.0 0.0 0.00 0.00 0.00 68 1019.7
20260831181455 87 0 0.0 0.0 0.00 0.00 0.00 67 1019.8
20260831180954 87 0 0.0 0.0 0.00 0.00 0.00 69 1019.9
20260831175454 87 0 0.0 0.0 0.00 0.00 0.00 67 1019.9
20260831174955 87 0 0.0 0.0 0.00 0.00 0.00 68 1020.0
20260831174455 86 0 0.0 0.0 0.00 0.00 0.00 69 1019.9
20260831173955 86 0 0.0 0.0 0.00 0.00 0.00 68 1019.9
20260831172955 87 0 0.0 0.0 0.00 0.00 0.00 68 1019.9
20260831171955 86 0 0.0 0.0 0.00 0.00 0.00 69 1019.9
20260831171455 86 0 0.0 0.0 0.00 0.00 0.00 67 1019.9
20260831170954 87 0 0.0 0.0 0.00 0.00 0.00 67 1020.0
20260831170455 87 0 0.0 0.0 0.00 0.00 0.00 68 1020.1
20260831165955 86 0 0.0 0.0 0.00 0.00 0.00 68 1020.2
20260831165455 86 0 0.0 0.0 0.00 0.00 0.00 68 1020.2
20260831164955 86 0 0.0 0.0 0.00 0.00 0.00 70 1020.1
20260831164455 85 0 0.0 0.0 0.00 0.00 0.00 71 1020.2
20260831163954 85 0 0.0 0.0 0.00 0.00 0.00 70 1020.3
20260831163455 85 0 0.0 0.0 0.00 0.00 0.00 72 1020.3
20260831162955 84 0 0.0 0.0 0.00 0.00 0.00 71 1020.4
20260831162455 84 0 0.0 0.0 0.00 0.00 0.00 71 1020.5
20260831161954 84 0 0.0 0.0 0.00 0.00 0.00 71 1020.4
20260831161454 84 0 0.0 0.0 0.00 0.00 0.00 70 1020.4
20260831160955 84 0 0.0 0.0 0.00 0.00 0.00 70 1020.4
20260831160455 84 0 0.0 0.0 0.00 0.00 0.00 70 1020.4
20260831155955 84 0 0.0 0.0 0.00 0.00 0.00 71 1020.4
20260831155455 84 0 0.0 0.0 0.00 0.00 0.00 70 1020.2
20260831154955 84 0 0.0 0.0 0.00 0.00 0.00 71 1020.3
20260831154455 84 0 0.0 0.0 0.00 0.00 0.00 71 1020.3
20260831153955 83 0 0.0 0.0 0.00 0.00 0.00 70 1020.3
20260831153455 83 0 0.0 0.0 0.00 0.00 0.00 70 1020.2
20260831152955 83 0 0.0 0.0 0.00 0.00 0.00 71 1020.2
20260831152455 83 0 0.0 0.0 0.00 0.00 0.00 72 1020.1
20260831151955 82 0 0.0 0.0 0.00 0.00 0.00 74 1020.2
20260831151455 82 0 0.0 0.0 0.00 0.00 0.00 74 1020.2
20260831150955 82 0 0.0 0.0 0.00 0.00 0.00 73 1020.1
20260831150454 82 0 0.0 0.0 0.00 0.00 0.00 75 1020.1
20260831145955 82 0 0.0 0.0 0.00 0.00 0.00 75 1020.0
20260831145455 82 0 0.0 0.0 0.00 0.00 0.00 76 1020.1
20260831144955 81 0 0.0 0.0 0.00 0.00 0.00 76 1020.0
20260831144455 81 0 0.0 0.0 0.00 0.00 0.00 75 1020.0
20260831143955 81 0 0.0 0.0 0.00 0.00 0.00 77 1020.0
20260831143456 80 0 0.0 0.0 0.00 0.00 0.00 76 1020.0
20260831142955 80 0 0.0 0.0 0.00 0.00 0.00 78 1020.0
20260831141955 80 0 0.0 0.0 0.00 0.00 0.00 77 1019.8
20260831141455 80 0 0.0 0.0 0.00 0.00 0.00 78 1019.8
20260831140955 79 0 0.0 0.0 0.00 0.00 0.00 78 1019.8
20260831140455 79 0 0.0 0.0 0.00 0.00 0.00 79 1019.7
20260831135955 79 0 0.0 0.0 0.00 0.00 0.00 80 1019.8
20260831134955 78 0 0.0 0.0 0.00 0.00 0.00 81 1019.7
20260831133955 77 0 0.0 0.0 0.00 0.00 0.00 82 1019.7
20260831133455 77 0 0.0 0.0 0.00 0.00 0.00 83 1019.6
20260831132955 76 0 0.0 0.0 0.00 0.00 0.00 84 1019.7
20260831131955 76 0 0.0 0.0 0.00 0.00 0.00 85 1019.8
20260831131455 75 0 0.0 0.0 0.00 0.00 0.00 86 1019.9
20260831130955 75 0 0.0 0.0 0.00 0.00 0.00 86 1019.9
20260831130455 74 0 0.0 0.0 0.00 0.00 0.00 86 1019.8
20260831124955 74 0 0.0 0.0 0.00 0.00 0.00 86 1019.8
20260831123955 73 0 0.0 0.0 0.00 0.00 0.00 87 1019.7
20260831123455 73 0 0.0 0.0 0.00 0.00 0.00 87 1019.6
20260831122955 73 0 0.0 0.0 0.00 0.00 0.00 88 1019.6
20260831122455 72 0 0.0 0.0 0.00 0.00 0.00 88 1019.5
20260831121955 72 0 0.0 0.0 0.00 0.00 0.00 88 1019.5
20260831121455 72 0 0.0 0.0 0.00 0.00 0.00 88 1019.5
20260831120955 72 0 0.0 0.0 0.00 0.00 0.00 88 1019.5
20260831115955 72 0 0.0 0.0 0.00 0.00 0.00 88 1019.5
20260831115455 72 0 0.0 0.0 0.00 0.00 0.00 88 1019.5
20260831114955 71 0 0.0 0.0 0.00 0.00 0.00 88 1019.4
20260831114455 71 0 0.0 0.0 0.00 0.00 0.00 88 1019.4
20260831113955 71 0 0.0 0.0 0.00 0.00 0.00 88 1019.3
20260831113455 71 0 0.0 0.0 0.00 0.00 0.00 88 1019.2
20260831112955 71 0 0.0 0.0 0.00 0.00 0.00 88 1019.2
20260831112456 71 0 0.0 0.0 0.00 0.00 0.00 88 1019.2
20260831111956 71 0 0.0 0.0 0.00 0.00 0.00 88 1019.2
20260831111455 71 0 0.0 0.0 0.00 0.00 0.00 88 1019.2
20260831110955 71 0 0.0 0.0 0.00 0.00 0.00 88 1019.1
20260831110455 71 0 0.0 0.0 0.00 0.00 0.00 88 1019.0
20260831105955 71 0 0.0 0.0 0.00 0.00 0.00 88 1019.0
20260831105455 71 0 0.0 0.0 0.00 0.00 0.00 88 1019.0
20260831104954 71 0 0.0 0.0 0.00 0.00 0.00 87 1018.9
20260831104455 71 0 0.0 0.0 0.00 0.00 0.00 88 1018.9
20260831103955 71 0 0.0 0.0 0.00 0.00 0.00 87 1018.8
20260831102955 71 0 0.0 0.0 0.00 0.00 0.00 87 1018.7
20260831102455 72 0 0.0 0.0 0.00 0.00 0.00 87 1018.8
20260831101955 72 0 0.0 0.0 0.00 0.00 0.00 87 1018.8
20260831101455 72 0 0.0 0.0 0.00 0.00 0.00 87 1018.8
20260831100955 71 0 0.0 0.0 0.00 0.00 0.00 87 1018.7
20260831100455 71 0 0.0 0.0 0.00 0.00 0.00 87 1018.7
20260831095955 71 0 0.0 0.0 0.00 0.00 0.00 87 1018.7
20260831095455 71 0 0.0 0.0 0.00 0.00 0.00 87 1018.7
20260831094955 71 0 0.0 0.0 0.00 0.00 0.00 87 1018.7
20260831094455 71 0 0.0 0.0 0.00 0.00 0.00 87 1018.7
20260831093955 71 0 0.0 0.0 0.00 0.00 0.00 87 1018.7
20260831092955 71 0 0.0 0.0 0.00 0.00 0.00 87 1018.7
20260831092455 71 0 0.0 0.0 0.00 0.00 0.00 87 1018.7
20260831091955 71 0 0.0 0.0 0.00 0.00 0.00 87 1018.7
20260831091455 71 0 0.0 0.0 0.00 0.00 0.00 87 1018.8
20260831090955 71 0 0.0 0.0 0.00 0.00 0.00 87 1018.7
20260831090455 71 0 0.0 0.0 0.00 0.00 0.00 87 1018.7
20260831085955 71 0 0.0 0.0 0.00 0.00 0.00 87 1018.6
20260831085455 71 0 0.0 0.0 0.00 0.00 0.00 87 1018.6
20260831084455 71 0 0.0 0.0 0.00 0.00 0.00 88 1018.5
20260831083455 71 0 0.0 0.0 0.00 0.00 0.00 88 1018.4
20260831082955 71 0 0.0 0.0 0.00 0.00 0.00 89 1018.4
20260831082455 70 0 0.0 0.0 0.00 0.00 0.00 89 1018.3
20260831081956 70 0 0.0 0.0 0.00 0.00 0.00 89 1018.3
20260831081455 70 0 0.0 0.0 0.00 0.00 0.00 89 1018.3
20260831080955 70 0 0.0 0.0 0.00 0.00 0.00 89 1018.3
20260831080455 70 0 0.0 0.0 0.00 0.00 0.00 89 1018.3
20260831075455 70 0 0.0 0.0 0.00 0.00 0.00 89 1018.4
20260831074955 70 0 0.0 0.0 0.00 0.00 0.00 90 1018.3
20260831074455 70 0 0.0 0.0 0.00 0.00 0.00 90 1018.3
20260831073955 70 0 0.0 0.0 0.00 0.00 0.00 90 1018.3
20260831073455 70 0 0.0 0.0 0.00 0.00 0.00 90 1018.4
20260831072955 70 0 0.0 0.0 0.00 0.00 0.00 90 1018.4
20260831072455 70 0 0.0 0.0 0.00 0.00 0.00 90 1018.4
20260831071955 70 0 0.0 0.0 0.00 0.00 0.00 90 1018.5
20260831071455 70 0 0.0 0.0 0.00 0.00 0.00 91 1018.4
20260831070955 70 0 0.0 0.0 0.00 0.00 0.00 91 1018.5
20260831070455 70 0 0.0 0.0 0.00 0.00 0.00 91 1018.6
20260831065955 70 0 0.0 0.0 0.00 0.00 0.00 91 1018.6
20260831065455 69 0 0.0 0.0 0.00 0.00 0.00 90 1018.6
20260831064955 69 0 0.0 0.0 0.00 0.00 0.00 90 1018.6
20260831064455 69 0 0.0 0.0 0.00 0.00 0.00 90 1018.7
20260831063955 69 0 0.0 0.0 0.00 0.00 0.00 90 1018.8
20260831063455 69 0 0.0 0.0 0.00 0.00 0.00 90 1018.8
20260831062956 69 0 0.0 0.0 0.00 0.00 0.00 90 1018.9
20260831062455 69 0 0.0 0.0 0.00 0.00 0.00 90 1018.8
20260831061955 69 0 0.0 0.0 0.00 0.00 0.00 90 1018.9
20260831061455 69 0 0.0 0.0 0.00 0.00 0.00 90 1018.9
20260831060955 69 0 0.0 0.0 0.00 0.00 0.00 90 1019.0
20260831060455 69 0 0.0 0.0 0.00 0.00 0.00 90 1019.1
20260831055955 69 0 0.0 0.0 0.00 0.00 0.00 90 1019.1
20260831055455 70 0 0.0 0.0 0.00 0.00 0.00 90 1019.1
20260831054956 70 0 0.0 0.0 0.00 0.00 0.00 90 1019.1
20260831054455 70 0 0.0 0.0 0.00 0.00 0.00 90 1019.1
20260831053956 70 0 0.0 0.0 0.00 0.00 0.00 89 1019.0
20260831053456 70 0 0.0 0.0 0.00 0.00 0.00 89 1019.1
20260831052955 70 0 0.0 0.0 0.00 0.00 0.00 89 1019.1
20260831052455 70 0 0.0 0.0 0.00 0.00 0.00 89 1019.2
20260831051456 70 0 0.0 0.0 0.00 0.00 0.00 89 1019.2
20260831050955 70 0 0.0 0.0 0.00 0.00 0.00 89 1019.1
20260831050455 70 0 0.0 0.0 0.00 0.00 0.00 89 1019.1
20260831045956 70 0 0.0 0.0 0.00 0.00 0.00 89 1019.1
20260831045455 70 0 0.0 0.0 0.00 0.00 0.00 89 1019.0
20260831044955 70 0 0.0 0.0 0.00 0.00 0.00 89 1019.0
20260831044455 70 0 0.0 0.0 0.00 0.00 0.00 89 1019.0
20260831043955 71 0 0.0 0.0 0.00 0.00 0.00 89 1019.0
20260831043455 71 0 0.0 0.0 0.00 0.00 0.00 89 1019.1
20260831042955 71 0 0.0 0.0 0.00 0.00 0.00 88 1019.1
20260831042455 71 0 0.0 0.0 0.00 0.00 0.00 88 1019.1
20260831041955 71 0 0.0 0.0 0.00 0.00 0.00 88 1019.1
20260831040955 72 0 0.0 0.0 0.00 0.00 0.00 87 1019.2
20260831035959 72 0 0.0 0.0 0.00 0.00 0.00 86 1019.1
20260831035455 72 0 0.0 0.0 0.00 0.00 0.00 86 1019.2
20260831034955 73 0 0.0 0.0 0.00 0.00 0.00 85 1019.2
20260831034455 73 0 0.0 0.0 0.00 0.00 0.00 85 1019.3
20260831033956 73 0 0.0 0.0 0.00 0.00 0.00 84 1019.3
20260831033455 74 0 0.0 0.0 0.00 0.00 0.00 83 1019.2
20260831032955 74 0 0.0 0.0 0.00 0.00 0.00 83 1019.2
20260831031955 74 0 0.0 0.0 0.00 0.00 0.00 83 1019.1
20260831031455 74 0 0.0 0.0 0.00 0.00 0.00 83 1019.2
20260831030955 74 0 0.0 0.0 0.00 0.00 0.00 83 1019.2
20260831030455 75 0 0.0 0.0 0.00 0.00 0.00 83 1019.3
20260831025955 75 0 0.0 0.0 0.00 0.00 0.00 83 1019.4
20260831025456 75 0 0.0 0.0 0.00 0.00 0.00 83 1019.4
20260831024955 74 0 0.0 0.0 0.00 0.00 0.00 83 1019.4
20260831024455 74 0 0.0 0.0 0.00 0.00 0.00 85 1019.4
20260831023955 74 0 0.0 0.0 0.00 0.00 0.00 86 1019.3
20260831023455 73 0 0.0 0.0 0.00 0.00 0.00 86 1019.2
20260831022955 73 0 0.0 0.0 0.00 0.00 0.00 86 1019.2
20260831022455 74 0 0.0 0.0 0.00 0.00 0.00 86 1019.2
20260831021955 74 0 0.0 0.0 0.00 0.00 0.00 86 1019.2
20260831021456 74 0 0.0 0.0 0.00 0.00 0.00 86 1019.2
20260831020955 74 0 0.0 0.0 0.00 0.00 0.00 86 1019.3
20260831020455 74 0 0.0 0.0 0.00 0.00 0.00 86 1019.3
20260831015955 74 0 0.0 0.0 0.00 0.00 0.00 86 1019.3
20260831014955 74 0 0.0 0.0 0.00 0.00 0.00 86 1019.3
20260831014455 74 0 0.0 0.0 0.00 0.00 0.00 86 1019.3
20260831013956 74 0 0.0 0.0 0.00 0.00 0.00 85 1019.2
20260831013455 74 0 0.0 0.0 0.00 0.00 0.00 85 1019.2
20260831012955 74 0 0.0 0.0 0.00 0.00 0.00 85 1019.2
20260831012456 74 0 0.0 0.0 0.00 0.00 0.00 85 1019.3
20260831011955 75 0 0.0 0.0 0.00 0.00 0.00 85 1019.2